Location: W�rzburg
(49.7529°N, 9.8822°E)
Time: 17:08:50
(UTC+01:00)

ISS - Pass Details

Date: 15 November 2017
Orbit: 402 x 407 km, 51.6° (Epoch: 20 November)

Event Time Altitude Azimuth Distance (km) Brightness Sun altitude
Exits shadow 06:28:09 12° 255° (WSW) 1,320 -1.7 -10.4°
Maximum altitude 06:29:49 17° 220° (SW) 1,105 -1.9 -10.2°
Drops below altitude 10° 06:32:01 10° 177° (S) 1,449 -0.8 -9.8°
Sets 06:34:34 0° 157° (SSE) 2,304 0.7 -9.4°
